Location: Newark
(32.8369°N, 35.2736°E)
Time: 03:14:23
(UTC+00:00)

LightSail 2 - Pass Details

Date: 22 November 2019
Orbit: 696 x 730 km, 24.0° (Epoch: 14 December)

Event Time Altitude Azimuth Distance (km) Brightness Sun altitude
Exits shadow 01:50:50 10° 177° (S) 2,167 7.7 -30.0°
Drops below altitude 10° 01:51:00 10° 175° (S) 2,191 7.7 -30.0°
Sets 01:54:54 0° 147° (SSE) 3,120 9.0 -29.2°
